Tracking 20040 objects as of 19-Nov-2019
Live streaming from Space Station
objects crossing your sky now

THORAD AGENA D DEB

Track THORAD AGENA D DEB now!
10-day predictions


NORAD ID: 4432
Int'l Code: 1969-082ED
Perigee: 769.1 km
Apogee: 848.1 km
Inclination: 70.0 °
Period: 100.9 minutes
Semi major axis: 7179 km
RCS: 0.039 m2 (small)
Launch date: September 30, 1969
Source: United States (US)
Launch site: AIR FORCE WESTERN TEST RANGE (AFWTR)

Note: This is SATELLITE DEBRIS
aabbcc
Your satellite tracking list
Your tracking list is empty




NASA's NSSDC Master Catalog

Two Line Element Set (TLE):
1  4432U 69082ED  19323.15853433  .00000058  00000-0  46575-4 0  9992
2  4432  69.9780 320.5372 0055018 187.5783 172.4514 14.27083939592640
Source of the keplerian elements: AFSPC